Regional Weather Roundup
Issued by NWS

Home | Current Version | Previous Version | Text Only | Print | Product List | Glossary Off
Versions: 1 2 3 4 5 6 7 8 9 10 11 12 13 14 15 16 17 18 19 20 21 22 23 24 25 26 27 28 29 30 31 32 33 34 35 36 37 38 39 40 41 42 43 44 45 46 47 48 49 50

000
ASUS43 KDTX 291710
RWRMI
MICHIGAN HOURLY REGIONAL WEATHER ROUNDUP
NATIONAL WEATHER SERVICE DETROIT/PONTIAC MI
100 PM EDT WED MAR 29 2017

NOTE: "FAIR" INDICATES FEW OR NO CLOUDS BELOW 12,000 FEET WITH NO
SIGNIFICANT WEATHER AND/OR OBSTRUCTION TO VISIBILITY.

MIZ047>049-052>055-059>063-066>070-074>076-081>083-291800-
SOUTHEAST LOWER MICHIGAN

CITY           SKY/WX    TMP DP  RH WIND       PRES   REMARKS
ADRIAN         SUNNY     50  35  56 E9G18     30.28F
ALMA           MOSUNNY   52  33  48 E7        30.31R
ANN ARBOR      SUNNY     52  33  48 VRB6      30.27S
BAD AXE        SUNNY     44  35  71 NE13      30.31S
CARO           SUNNY     48  39  70 N9        30.30R
DETROIT CITY   SUNNY     51  31  46 SE7       30.28F
DETROIT        PTSUNNY   53  31  42 NE9       30.28F
FLINT          SUNNY     53  33  46 NE7       30.29S
GROSSE ILE     SUNNY     46  35  65 S7        30.27F
HILLSDALE      SUNNY     50  32  50 E12       30.26S
HOWELL         SUNNY     52  31  46 NE5       30.28R

CITY           SKY/WX    TMP DP  RH WIND       PRES   REMARKS
JACKSON        SUNNY     53  31  42 SE7G17    30.27R
LAMBERTVILLE   SUNNY     51  34  52 E9        30.28S
LANSING        CLOUDY    51  31  46 VRB5      30.30R
LAPEER         FAIR      53  31  44 N9        30.28S
MASON          MOSUNNY   51  36  57 NE9       30.28S
MONROE         SUNNY     50  36  57 SE7       30.28S
MT. CLEMENS    MOSUNNY   51  35  54 VRB5      30.26S
PONTIAC        PTSUNNY   53  31  42 N7        30.26S
PORT HOPE        N/A     37  32  82 NE13      30.31S WCI  29
PORT HURON     SUNNY     52  30  43 NW6       30.28R
TRI CITIES     SUNNY     43  35  73 NE17      30.33R
MIDLAND        FAIR      46  34  63 E13       30.32R
TROY           SUNNY     53  29  40 NE3       30.29S
SAGINAW HB     SUNNY     45  34  65 N14       30.32R
$$
MIZ043>046-050>051-056>058-064>065-071>073-077>080-291800-
SOUTHWEST LOWER MICHIGAN

CITY           SKY/WX    TMP DP  RH WIND       PRES   REMARKS
BATTLE CREEK   SUNNY     53  33  46 NE9       30.27F
BENTON HARBOR  PTSUNNY   54  33  45 E15       30.25F
BIG RAPIDS     CLOUDY    52  29  40 N3        30.28F
COLDWATER      SUNNY     53  31  42 E12G17    30.26S
FREMONT        FAIR      52  28  39 CALM      30.29F
HOLLAND        MOSUNNY   51  33  50 E13       30.29F
GRAND RAPIDS   CLOUDY    50  35  56 E8        30.28F
IONIA          FAIR      51  32  49 E10       30.29S
KALAMAZOO      SUNNY     54  31  41 E12G17    30.27F
LUDINGTON      CLOUDY    51  32  48 CALM      30.31S
MARSHALL       SUNNY     55  32  42 E8        30.26F
MOUNT PLEASANT CLOUDY    51  31  46 N3        30.29S
MUSKEGON       CLOUDY    54  31  41 SE6       30.29F
SOUTH HAVEN    CLOUDY    53  33  47 E7        30.26F
$$
MIZ016>042-291800-
NORTHERN LOWER MICHIGAN

CITY           SKY/WX    TMP DP  RH WIND       PRES   REMARKS
ALPENA         SUNNY     43  29  57 NE10      30.36F
BEAVER ISLAND  MOSUNNY   38  28  65 E9        30.37S WCI  32
BELLAIRE       CLOUDY    46  30  54 NE7       30.34R
CADILLAC       CLOUDY    49  24  38 N6        30.28S
CHARLEVOIX     MOSUNNY   41  31  68 N5        30.38R
FRANKFORT      MOSUNNY   46  32  57 N7        30.33S
GAYLORD        MOSUNNY   43  29  57 NE8       30.31S
GRAYLING       MOSUNNY   45  30  57 NE6       30.31S
HARBOR SPRINGS MOSUNNY   41  30  64 E8        30.35R
HOUGHTON LAKE  MOSUNNY   48  27  44 NE7       30.30S
MANISTEE       PTSUNNY   47  34  60 NW8       30.30F
OSCODA         PTSUNNY   41  30  64 NE16G23   30.34F
PELLSTON       CLOUDY    41  27  57 NE12      30.36R
ROGERS CITY    SUNNY     37  28  70 NE10      30.38F WCI  29
TRAVERSE CITY  CLOUDY    37  33  85 W6        30.34R FOG     WCI  32
$$
MIZ007>008-015-291800-
EASTERN UPPER MICHIGAN

CITY           SKY/WX    TMP DP  RH WIND       PRES   REMARKS
KINROSS        MOSUNNY   39  19  44 E12       30.37F WCI  32
MACKINAC ISLAN CLOUDY    35  25  67 E9        30.36S WCI  27
NEWBERRY       MOSUNNY   38  22  52 N10       30.35F WCI  31
S. S. MARIE    MOSUNNY   41  20  43 N6        30.36F
MUNISING         N/A     33  27  78 NE10      30.38F WCI  25
$$
MIZ004>006-011>014-085-291800-
CENTRAL UPPER MICHIGAN

CITY           SKY/WX    TMP DP  RH WIND       PRES   REMARKS
MANISTIQUE     CLOUDY    39  30  70 SE9       30.36S WCI  32
ESCANABA       CLOUDY    41  27  57 NE5       30.37F
MENOMINEE        N/A    N/A N/A N/A MISG        N/A
SAWYER-GWINN   SUNNY     36  25  64 N8        30.37S WCI  29
$$
MIZ001>003-009>011-084-291800-
WESTERN UPPER MICHIGAN

CITY           SKY/WX    TMP DP  RH WIND       PRES   REMARKS
IRON MOUNTAIN  MOSUNNY   43  25  49 E3        30.33F
HOUGHTON       PTSUNNY   34  25  69 E14       30.37F WCI  25
COPPER HARBOR    N/A     35  25  66 E8        30.40F WCI  29
IRONWOOD       PTSUNNY   48  29  47 SE6       30.31S
$$

ABBREVIATIONS USED IN REMARKS
   TC - TEMPERATURE IN CELSIUS
  WCI - WIND CHILL INDEX
   HX - HEAT INDEX
  VSB - VISIBILITY





USA.gov is the U.S. government's official web portal to all federal, state and local government web resources and services.